Other Public Products
Issued by NWS Grand Forks, ND

Home | Current Version | Previous Version | Graphics & Text | Print | Product List | Glossary On
Versions: 1 2 3 4 5 6 7 8 9 10 11 12 13 14 15 16 17 18 19 20 21 22 23 24 25 26 27 28 29 30 31 32 33 34 35 36 37 38 39 40 41 42 43 44 45 46 47 48 49 50
000
FPUS83 KFGF 151631
OPUFGF
PRAIRIE TO PINES WEATHER ROUNDUP
NATIONAL WEATHER SERVICE EASTERN NORTH DAKOTA/GRAND FORKS ND
1100 AM CDT MON SEP 15 2014

 **SATELLITE DATA USED TO AUGMENT SKY COVER AT AUTOMATED STATIONS**
 *****  WEATHER ACROSS EASTERN NORTH DAKOTA  *****

CITY           SKY/WX    TMP DP  RH WIND       PRES   REMARKS
GRAND FORKS    MOSUNNY   59  39  47 W10       30.22S
GRAND FORKS AF SUNNY     59  39  46 NW10      30.22S
GRAND CITY NWS   N/A     61 N/A N/A NW5         N/A
BUXTON           N/A     58  42  53 W6          N/A
DEVILS LAKE    SUNNY     57  36  44 W14       30.20S
FARGO          SUNNY     57  35  43 VRB3      30.25F
WAHPETON ARPT  SUNNY     55  34  44 N6        30.27S
$$

 *****  WEATHER ACROSS CENTRAL AND WESTERN NORTH DAKOTA  *****

CITY           SKY/WX    TMP DP  RH WIND       PRES   REMARKS
JAMESTOWN      SUNNY     55  40  56 W7        30.26R
BISMARCK       SUNNY     56  40  55 SW7       30.27F
MINOT          SUNNY     60  35  39 W15       30.19F
MINOT AFB      SUNNY     59  36  43 W17G23    30.19S
GARRISON         N/A     58  38  47 W12       30.22F
WILLISTON      SUNNY     50  37  61 VRB5      30.22F
DICKINSON      SUNNY     57  40  52 SW9       30.23F
HETTINGER      SUNNY     55  39  54 S12       30.27F
$$

 *****  OTHER OBSERVATIONS NORTHEAST NORTH DAKOTA  *****

CITY           SKY/WX    TMP DP  RH WIND       PRES   REMARKS
WALHALLA         N/A     59  37  44 W13       30.18S
LANGDON        FAIR      59  34  38 W12G20    30.19S
CAVALIER       FAIR      59  39  47 W6        30.18F
GRAFTON        FAIR      57  37  47 W10       30.20S
CANDO          FAIR      57  37  47 W10       30.20S
FORT TOTTEN      N/A     57  40  52 W7        29.95S
ROLLA          PTSUNNY   54  37  54 SW13      30.18F
RUGBY          FAIR      55  39  54 W12       30.20F
 ***** THE ABOVE OBSERVATIONS ARE NON NWS ARE NOT QUALITY
        CONTROLLED AND MAY MIS-REPORT RAIN FOR SNOW...
$$

 *****  OTHER OBSERVATIONS SOUTHEAST NORTH DAKOTA *****

CITY           SKY/WX    TMP DP  RH WIND       PRES   REMARKS
COOPERSTOWN    NOT AVBL
VALLEY CITY    FAIR      55  39  54 SW8       30.26S
OAKES            N/A     55  37  50 NW6       30.28S
GWINNER        SUNNY     57  32  38 NW5       30.28S
SHEYENNE NWR     N/A     58  38  47 N2        29.95S
BUFFALO          N/A     58  30  34 W8          N/A
WYNDMERE         N/A     59  37  44 N3          N/A
 ***** THE ABOVE OBSERVATIONS ARE NON NWS ARE NOT QUALITY
       CONTROLLED AND MAY MIS-REPORT RAIN FOR SNOW...
$$

  *****  WEATHER ACROSS NORTHERN MINNESOTA  *****

CITY           SKY/WX    TMP DP  RH WIND       PRES   REMARKS
FLAG ISLAND    CLOUDY    54  37  54 W10G16    30.13S
WARROAD        SUNNY     55  41  58 W14         N/A
ROSEAU         SUNNY     57  41  54 W10       30.18S
HALLOCK        SUNNY     55  39  54 NW5       30.19S
THF RVR FALLS  MOSUNNY   55  37  50 SW12      30.22S
HALSTAD          N/A     58  34  39 W5          N/A
FOSSTON        CLOUDY    55  36  47 W6        30.24R
BAUDETTE       MOSUNNY   53  39  59 SW7       30.18S
WASKISH        SUNNY     54  43  66 CALM      30.21S
CROOKSTON      MOSUNNY   55  39  54 W5        30.24S
$$
  *****  WEATHER ACROSS CENTRAL AND WEST MINNESOTA  *****

CITY           SKY/WX    TMP DP  RH WIND       PRES   REMARKS
BEMIDJI        SUNNY     54  35  48 NW10G16   30.22S
PARK RAPIDS    SUNNY     53  35  50 NW13      30.23S
WADENA         MOSUNNY   54  37  54 NW3       30.24S
DETROIT LAKES  SUNNY     54  36  50 NW7       30.26S
MOORHEAD       SUNNY     57  34  41 CALM      30.26S
FERGUS FALLS   MOSUNNY   55  34  44 N7        30.26S
ELBOW LAKE     FAIR      55  43  64 NW9       30.26S
MORRIS MN      SUNNY     59  43  55 NW9G16    30.25S
STAPLES        MOSUNNY   52  36  54 N9        30.24S
WHEATON        SUNNY     55  36  47 NW13      30.28F
$$
  *****  WEATHER ELSEWHERE ACROSS MINNESOTA  *****

CITY           SKY/WX    TMP DP  RH WIND       PRES   REMARKS
DULUTH         MOSUNNY   53  34  48 NW13      30.17S
INTRNTL FALLS  SUNNY     52  37  56 W12       30.17S
ELY            MOSUNNY   50  37  62 W14       30.16R
CLOQUET        SUNNY     54  32  43 NW17      30.18F
BRAINERD       CLOUDY    52  40  63 N13       30.23S
HIBBING        CLOUDY    54  35  48 NW13G20   30.20R
ALEXANDRIA     MOSUNNY   56  43  61 NW8       30.25S
SAINT CLOUD    CLOUDY    57  38  48 N9        30.23R
MINNEAPOLIS    PTSUNNY   56  47  71 NW7       30.21S
$$

  *****  WEATHER ACROSS SOUTH DAKOTA  *****

CITY           SKY/WX    TMP DP  RH WIND       PRES   REMARKS
SIOUX FALLS    MOSUNNY   56  45  66 N10       30.26S
BROOKINGS      NOT AVBL
WATERTOWN      MOSUNNY   54  44  69 N8        30.27R
HURON          SUNNY     57  41  55 N9        30.29S
SISSETON         N/A     58  36  43 N13       30.27R
ABERDEEN       SUNNY     55  41  59 N6        30.29S
MITCHELL       SUNNY     57  45  64 N9        30.30R
PIERRE         SUNNY     56  41  57 W6        30.30S
MOBRIDGE       SUNNY     55  39  54 SW3       30.27F
RAPID CITY     SUNNY     54  41  61 S9        30.29F
$$

  *****  SOME WEATHER IN NEARBY STATES *****

CITY           SKY/WX    TMP DP  RH WIND       PRES   REMARKS
GLASGOW MT     SUNNY     54  40  59 SE10      30.17F
GREAT FALLS MT SUNNY     58  41  53 SW5       30.10S
CHEYENNE WY    SUNNY     57  32  38 S7        30.36F
SCOTTSBLUFF NE SUNNY     51  42  71 MISG      30.34S
OMAHA NE       PTSUNNY   57  48  72 N16       30.19R
DES MOINES IA  CLOUDY    58  52  80 N17       30.12R
DAVENPORT IA   PTSUNNY   59  52  77 SE6       30.10R
CHICAGO IL     CLOUDY    59  48  67 SW5       30.12S
EAU CLAIRE WI  PTSUNNY   56  45  66 NW9       30.17S
LA CROSSE WI   RAIN      52  48  86 N6        30.19R FOG
$$

  *****  SOME NATIONAL WEATHER *****

CITY           SKY/WX    TMP DP  RH WIND       PRES   REMARKS
LA GUARDIA NY  MOSUNNY   65  44  46 E8        30.21F
RALEIGH NC     PTSUNNY   69  61  75 S5        30.23F
ATLANTA GA     CLOUDY    71  66  84 NE5       30.21F HAZE
NEW ORLEANS LA PTSUNNY   87  77  72 NE12      30.10S HX  99
OKLAHOMA CITY  CLOUDY    75  66  73 S10       30.16R
ALBUQUERQUE NM MOSUNNY   69  55  60 S8        30.28R
SALT LAKE CITY MOSUNNY   72  43  35 E9        30.11S
LOS ANGELES CA SUNNY     78  66  66 SW5       29.82R
BOISE ID       SUNNY     69  36  29 CALM      30.04S
SEATTLE WA     MOSUNNY   63  53  70 CALM      29.89S
$$

*** WEATHER ACROSS MANITOBA...SASKATCHEWAN AND ONTARIO ***
                ***ONTARIO***

CITY           SKY/WX    TMP DP  RH WIND       PRES   REMARKS
GERALDTON      MOSUNNY   46  45  93 CALM      30.04
THUNDER BAY    PTSUNNY   54  43  66 W8        30.09S
SIOUX LOOKOUT  MOSUNNY   50  41  71 W8        30.09
TORONTO        PTSUNNY   63  46  55 SW10G18   30.15
BIG TROUT LK   PTSUNNY   50  41  71 W12G18    29.86F
PICKLE LAKE    MOSUNNY   52  34  50 W13       30.00F
DRYDEN         MOSUNNY   50  39  66 W14       30.11S
KENORA         MOSUNNY   52  39  62 W13       30.12
$$
                *** MANITOBA***

CITY           SKY/WX    TMP DP  RH WIND       PRES   REMARKS
BRANDON        SUNNY     52  39  62 W8        30.16
DAUPHIN        SUNNY     59  39  47 W12G20    30.08F
ISLAND LAKE    MOSUNNY   52  43  71 W6        29.91S
PILOT MOUND      N/A     55  37  50 W5          N/A
THE PAS        PTSUNNY   55  39  54 W10       29.93F
THOMPSON       PTSUNNY   48  37  66 W8        29.84R
WINNIPEG       MOSUNNY   57  39  51 W10       30.15S
LYNN LAKE      CLOUDY    45  43  93 MISG      29.87R
CHURCHILL      PTSUNNY   37  25  60 N16G23    29.91R
GILLAM         LGT RAIN  43  43 100 SW10      29.81F
$$
                ***SASKATCHEWAN***

CITY           SKY/WX    TMP DP  RH WIND       PRES   REMARKS
ESTEVAN        SUNNY     55  41  58 SW12      30.18F
KINDERSLEY     MOSUNNY   54  41  62 SW7       30.07S
LLOYDMINSTER   PTSUNNY   59  43  55 W13       29.99F
PRINCE ALBERT  PTSUNNY   52  41  66 W6        29.97
REGINA         MOSUNNY   55  43  62 SW10      30.12F


USA.gov is the U.S. government's official web portal to all federal, state and local government web resources and services.